[[{"header":{"parameterUnit":"m.s-1","parameterCategory":1,"la1":30.2991,"la2":30.254,"lo1":-89.0895,"lo2":-89.0444,"dy":0.0017,"dx":0.0017,"nx":28,"ny":28,"refTime":"2025-07-27T09:00:00:Z","depth":0,"parameterNumber":2,"parameterNumberName":"U-component_of_WINDS"},"data":[0,0,0,0,0,0,0,0,0,0,0,0,0,0,0,0,0,0,0,0,0,0,0,0,0,0,0,0,0,0,0,0,0,0,0,0,0,0,0,0,0,0,0,0,0,0,0,0,0,0,0,0,0,0,0,0,0,0,1.9234,1.9236,0,1.9411,1.9413,1.9415,1.9478,1.9477,1.9477,1.9476,1.9656,1.9662,1.9667,0,0,0,0,0,0,0,0,0,0,0,0,0,1.8949,1.8954,1.9234,1.9236,1.9239,1.9411,1.9413,1.9416,1.9478,1.9477,1.9476,1.9476,1.9654,1.9661,1.9667,0,0,0,0,0,0,0,0,0,0,0,0,0,1.9094,1.8956,1.9234,1.929,1.9297,1.941,1.9413,1.9416,1.9478,1.9477,1.9476,1.9475,1.9652,1.966,1.9668,1.9738,0,0,1.9693,1.9697,0,0,0,0,0,0,0,0,1.9086,1.9105,1.928,1.9287,1.9295,1.9421,1.9379,1.9524,1.9478,1.9409,1.9476,1.9475,1.9579,1.9593,1.9628,1.9746,1.9754,1.9694,1.9699,1.9702,1.9704,0,0,0,0,0,0,0,1.9076,1.9097,1.9304,1.9282,1.9291,1.9307,1.9326,1.9407,1.9497,1.9415,1.942,1.944,1.9583,1.962,1.9633,1.9756,1.9693,1.9701,1.9706,1.9709,1.9939,1.9941,0,0,0,0,0,0,1.9056,1.9089,1.9299,1.9309,1.9186,1.9313,1.9334,1.9382,1.9497,1.9513,1.9441,1.9443,1.9607,1.9623,1.9639,1.9728,1.9702,1.971,1.9714,1.9938,1.994,1.9941,0,0,0,0,0,0,1.905,1.9075,1.9291,1.9201,1.9229,1.9319,1.9371,1.9386,1.9423,1.9516,1.9532,1.9463,1.9607,1.9628,1.9713,1.9735,1.9713,1.9721,1.9937,1.9939,1.994,1.9905,0,0,0,0,0,0,1.9042,1.9072,1.9099,1.9201,1.9234,1.9362,1.9373,1.939,1.9437,1.9441,1.9541,1.9557,1.9608,1.97,1.9721,1.9746,1.9727,1.9935,1.9938,1.994,1.9904,1.9905,1.9906,0,0,0,0,0,1.9031,1.9082,1.91,1.9125,1.927,1.9363,1.9382,1.944,1.9439,1.9467,1.9526,1.9553,1.9729,1.9708,1.9732,1.976,1.9934,1.9937,1.994,1.9904,1.9905,1.9906,0,0,0,0,0,0,1.8981,1.9096,1.9118,1.9203,1.9273,1.9373,1.941,1.9439,1.951,1.9511,1.958,1.9602,1.968,1.9729,1.9703,1.9833,1.9833,1.9841,1.9798,1.98,1.98,1.9787,1.9734,0,0,0,0,0,1.8979,1.9045,1.9143,1.9209,1.9243,1.932,1.9363,1.9402,1.9476,1.9506,1.9572,1.9643,1.9714,1.976,1.9831,1.9912,1.9934,1.9943,1.9943,1.9943,1.9949,1.9995,2.0,1.9951,1.995,1.995,0,0,1.8977,1.9049,1.9086,1.92,1.9259,1.9325,1.9345,1.9414,1.9464,1.9517,1.96,1.9651,1.9735,1.9818,1.9858,1.9861,1.9968,1.9947,1.9947,1.9952,1.9998,2.0003,2.0007,1.9952,1.9952,1.9952,0,0,1.9008,1.9069,1.913,1.9188,1.9277,1.9328,1.9343,1.9439,1.9475,1.956,1.9601,1.9661,1.9783,1.9841,1.9886,1.9938,1.9966,1.996,1.9963,2.0007,2.0011,2.0015,2.0033,2.0039,1.9965,1.9965,1.9965,0,1.8994,1.9096,1.9158,1.9225,1.9274,1.9325,1.9387,1.9441,1.9547,1.958,1.9581,1.9735,1.9795,1.9892,1.9905,1.994,1.9958,1.9948,2.0006,2.001,2.0015,2.0032,2.0039,1.9964,1.9964,1.9964,1.9964,0,1.9074,1.9144,1.9183,1.9285,1.9338,1.9403,1.9474,1.952,1.9555,1.9605,1.9691,1.9766,1.9852,1.9878,1.9912,1.998,1.9979,1.9992,1.9994,2.0017,2.0035,2.0042,1.9962,1.9962,1.9963,1.9963,0,0,1.9077,1.9212,1.9225,1.9272,1.9374,1.9429,1.9496,1.958,1.9619,1.9691,1.9748,1.9849,1.9863,1.9914,1.9955,1.9994,2.003,2.0003,2.0006,2.0004,2.0108,2.0096,2.0103,2.0049,2.005,2.0051,2.0101,0,1.9119,1.9241,1.9299,1.9395,1.946,1.9509,1.9568,1.9636,1.9685,1.9747,1.9802,1.9873,1.9885,1.9917,1.9957,2.0016,2.0051,2.0014,2.0102,2.0104,2.0078,2.0113,2.0101,2.0144,2.0108,2.0109,2.011,0,1.9185,1.9257,1.936,1.9453,1.9483,1.9534,1.9616,1.9676,1.9754,1.9787,1.9845,1.9884,1.9956,1.9953,2.0053,2.0026,2.0065,2.01,2.0103,2.0113,2.0108,2.0123,2.0159,2.0165,2.0122,2.0121,2.012,0,1.9176,1.9298,1.9376,1.9414,1.9526,1.956,1.9608,1.9686,1.9733,1.9805,1.9836,1.9915,1.9958,2.0019,2.0079,2.0071,2.0172,2.0174,2.0201,2.0199,2.0219,2.0217,2.0262,2.0246,2.0246,2.0246,2.0245,0,1.9217,1.9277,1.9373,1.942,1.9489,1.9555,1.9621,1.9673,1.9741,1.9799,1.9847,1.99,1.9977,2.004,2.0087,2.0162,2.0181,2.021,2.0221,2.0205,2.0201,2.0231,2.0229,2.0247,2.0247,2.0247,2.0246,0,1.9217,1.9284,1.9371,1.947,1.9496,1.9542,1.9626,1.9674,1.9726,1.9799,1.9819,1.9901,1.9977,2.0043,2.0144,2.0176,2.0253,2.0267,2.0226,2.0232,2.0255,2.0251,2.032,2.0332,2.0308,2.0308,2.0308,0,1.9239,1.9287,1.939,1.9433,1.948,1.9548,1.9596,1.9663,1.9711,1.9804,1.984,1.992,1.9987,2.0107,2.0175,2.0252,2.0269,2.0287,2.0281,2.0262,2.0268,2.0264,2.0269,2.0287,2.0287,2.0287,2.0287,0,1.9269,1.93,1.9369,1.9449,1.9505,1.9571,1.9639,1.9671,1.975,1.9802,1.988,1.9933,2.0036,2.0114,2.0199,2.0248,2.028,2.0289,2.0299,2.0282,2.0256,2.027,2.0225,2.0287,2.0287,2.0287,2.0287,2.0287,1.9281,1.9325,1.9405,1.948,1.9538,1.96,1.9649,1.9708,1.9775,1.9864,1.9899,1.9979,2.0056,2.0173,2.0222,2.0286,2.0291,2.0306,2.031,2.0312,2.0309,2.0246,2.0302,2.0302,2.0302,2.0302,2.0302,0,1.9313,1.9367,1.9435,1.9528,1.9587,1.9613,1.9689,1.9736,1.9806,1.9876,1.9941,2.0031,2.0108,2.0182,2.0262,2.0298,2.0315,2.0317,2.0315,2.0325,2.03,2.0283,2.0302,2.0302,2.0302,2.0302,2.0302,2.0302,1.9337,1.9414,1.9454,1.956,1.9613,1.9693,1.9734,1.9791,1.9847,1.9945,2.0009,2.0057,2.0128,2.0214,2.0285,2.0305,2.0332,2.033,2.0353,2.0328,2.0327,2.0326,2.0311,2.0335,2.0335,2.0373,2.0374,2.0374]},{"header":{"parameterUnit":"m.s-1","parameterCategory":1,"la1":30.2991,"la2":30.254,"lo1":-89.0895,"lo2":-89.0444,"dy":0.0017,"dx":0.0017,"nx":28,"ny":28,"refTime":"2025-07-27T09:00:00:Z","depth":0,"parameterNumber":3,"parameterNumberName":"V-component_of_WINDS"},"data":[0,0,0,0,0,0,0,0,0,0,0,0,0,0,0,0,0,0,0,0,0,0,0,0,0,0,0,0,0,0,0,0,0,0,0,0,0,0,0,0,0,0,0,0,0,0,0,0,0,0,0,0,0,0,0,0,0,0,3.0821,3.082,0,3.0737,3.0736,3.0735,3.0694,3.0694,3.0694,3.0694,3.06,3.0597,3.0595,0,0,0,0,0,0,0,0,0,0,0,0,0,3.0938,3.0936,3.0821,3.082,3.0819,3.0737,3.0736,3.0735,3.0694,3.0694,3.0694,3.0694,3.06,3.0597,3.0594,0,0,0,0,0,0,0,0,0,0,0,0,0,3.0874,3.0936,3.0821,3.0789,3.0785,3.0737,3.0736,3.0735,3.0694,3.0694,3.0694,3.0694,3.0601,3.0598,3.0594,3.057,0,0,3.0582,3.0581,0,0,0,0,0,0,0,0,3.0878,3.087,3.0795,3.0791,3.0787,3.0726,3.0743,3.0679,3.0694,3.0728,3.0694,3.0694,3.0641,3.0634,3.0618,3.0565,3.0561,3.0582,3.058,3.0578,3.0577,0,0,0,0,0,0,0,3.0882,3.0873,3.0788,3.0794,3.0789,3.0776,3.0767,3.073,3.0685,3.0725,3.0722,3.0713,3.0639,3.0622,3.0615,3.056,3.0582,3.0579,3.0576,3.0575,3.0482,3.0482,0,0,0,0,0,0,3.0893,3.0877,3.079,3.0785,3.0833,3.0774,3.0764,3.0745,3.0686,3.0677,3.0713,3.0711,3.0628,3.062,3.0612,3.0579,3.0578,3.0575,3.0572,3.0482,3.0482,3.0482,0,0,0,0,0,0,3.0896,3.0886,3.0794,3.083,3.0818,3.0772,3.0752,3.0744,3.0727,3.0677,3.0667,3.0704,3.0628,3.0617,3.0581,3.0575,3.0573,3.0569,3.0482,3.0482,3.0482,3.0514,0,0,0,0,0,0,3.0899,3.0887,3.0879,3.083,3.0816,3.0767,3.0751,3.0742,3.0721,3.0718,3.0666,3.0657,3.0627,3.0587,3.0577,3.057,3.0566,3.0483,3.0482,3.0482,3.0513,3.0515,3.0516,0,0,0,0,0,3.0903,3.089,3.0879,3.0869,3.0806,3.0767,3.0758,3.0726,3.0721,3.0711,3.0679,3.0659,3.0578,3.0583,3.0572,3.0564,3.0483,3.0482,3.0482,3.0512,3.0515,3.0516,0,0,0,0,0,0,3.0936,3.0883,3.087,3.0841,3.0809,3.076,3.0747,3.0729,3.0695,3.0694,3.0653,3.0641,3.0608,3.0582,3.059,3.0537,3.0528,3.0525,3.0555,3.0557,3.0558,3.0565,3.0563,0,0,0,0,0,3.0941,3.0916,3.087,3.0848,3.0833,3.0793,3.0775,3.0753,3.0717,3.0702,3.0667,3.0631,3.0597,3.0575,3.0541,3.0509,3.0496,3.0498,3.0499,3.0501,3.0499,3.0478,3.0478,3.048,3.048,3.048,0,0,3.0949,3.0916,3.0903,3.0854,3.0827,3.08,3.0782,3.0754,3.0733,3.0697,3.0661,3.0634,3.059,3.0556,3.0539,3.0533,3.0495,3.05,3.0502,3.0499,3.0478,3.0478,3.0478,3.048,3.048,3.048,0,0,3.0949,3.0923,3.0903,3.0876,3.0835,3.0809,3.0804,3.0757,3.0739,3.0703,3.0676,3.0648,3.0591,3.0561,3.0538,3.0527,3.0507,3.0517,3.0524,3.0505,3.0505,3.0505,3.05,3.0499,3.0515,3.0515,3.0515,0,3.0963,3.0924,3.0893,3.0867,3.0846,3.0815,3.0793,3.0767,3.0717,3.0701,3.0696,3.0624,3.0592,3.055,3.0548,3.053,3.0522,3.0522,3.0508,3.0508,3.0507,3.0502,3.05,3.0517,3.0516,3.0516,3.0516,0,3.0943,3.0916,3.0904,3.0859,3.0836,3.0812,3.0775,3.0754,3.0735,3.0708,3.067,3.0631,3.0589,3.0577,3.0556,3.0531,3.0529,3.0517,3.0507,3.0509,3.0503,3.0501,3.0519,3.0518,3.0518,3.0517,0,0,3.0962,3.0901,3.0897,3.0876,3.0829,3.0806,3.0779,3.0741,3.0724,3.0689,3.0665,3.0617,3.0605,3.058,3.0555,3.0538,3.0531,3.0527,3.0526,3.0529,3.05,3.0509,3.0508,3.0517,3.0517,3.0516,3.0503,0,3.0956,3.091,3.0881,3.0845,3.0819,3.0789,3.0766,3.0733,3.0707,3.0679,3.0648,3.0615,3.0603,3.0587,3.0569,3.0536,3.0524,3.0536,3.0491,3.049,3.0503,3.0505,3.0515,3.0504,3.0501,3.05,3.05,0,3.0942,3.0912,3.0875,3.0831,3.0818,3.0798,3.076,3.0734,3.0695,3.0677,3.0649,3.0624,3.0592,3.0586,3.0539,3.0548,3.0528,3.0508,3.0507,3.0501,3.0495,3.0498,3.05,3.0498,3.0496,3.0497,3.0497,0,3.0959,3.0909,3.088,3.0863,3.0811,3.0797,3.0774,3.0736,3.0714,3.0679,3.0664,3.0625,3.0604,3.0573,3.0537,3.0536,3.0494,3.0485,3.0476,3.0477,3.0469,3.0469,3.0467,3.0457,3.0457,3.0457,3.0457,0,3.0955,3.0933,3.0887,3.0869,3.0843,3.0809,3.0783,3.0757,3.0723,3.0697,3.0668,3.0644,3.0599,3.0569,3.054,3.0506,3.0496,3.0479,3.0472,3.0481,3.0484,3.0467,3.0467,3.0456,3.0456,3.0456,3.0456,0,3.097,3.0938,3.0904,3.0859,3.0846,3.0829,3.0788,3.0768,3.0741,3.0709,3.0699,3.0655,3.0618,3.058,3.0529,3.0509,3.0476,3.0466,3.049,3.0485,3.0479,3.048,3.0465,3.0461,3.0454,3.0454,3.0455,0,3.0969,3.0952,3.0905,3.0887,3.0866,3.0837,3.0816,3.078,3.0758,3.0713,3.0698,3.0659,3.0627,3.0568,3.053,3.049,3.0478,3.0476,3.0472,3.0482,3.0477,3.0479,3.0476,3.0477,3.0477,3.0478,3.0478,0,3.0971,3.0956,3.0928,3.0893,3.0869,3.084,3.0809,3.0795,3.0753,3.0729,3.0693,3.0668,3.0617,3.0578,3.0534,3.0507,3.0484,3.048,3.0475,3.0485,3.0499,3.0491,3.0493,3.048,3.048,3.0479,3.0479,3.0479,3.0977,3.096,3.0925,3.0894,3.0867,3.0839,3.0818,3.0789,3.0759,3.0717,3.0697,3.066,3.0619,3.0559,3.0532,3.05,3.0494,3.0488,3.0487,3.0486,3.0488,3.0505,3.0492,3.0492,3.0492,3.0492,3.0492,0,3.0977,3.0953,3.0925,3.0884,3.0859,3.0843,3.0808,3.0787,3.0756,3.0722,3.0691,3.0648,3.061,3.0569,3.0528,3.051,3.0499,3.0501,3.0501,3.0495,3.0496,3.0504,3.0511,3.0511,3.0511,3.0511,3.0511,3.0511,3.0974,3.0945,3.0926,3.0882,3.0857,3.0823,3.0804,3.0777,3.075,3.0704,3.0674,3.0649,3.0611,3.0567,3.053,3.0519,3.0505,3.0509,3.0495,3.0496,3.0495,3.0494,3.0501,3.0507,3.0507,3.0496,3.0496,3.0496]}]]